Home > Weather > Willich > Past weeks

Flag for Germany Weather for the Past 2 Weeks in Willich, North Rhine-Westphalia, Germany

Now
50 °F

Clear.


Feels Like: 45 °F
Forecast: 45 / 51 °F
Wind: 13 mph from Southeast

Location: Monchengladbach Airport

Current Time: Feb 6, 2016 at 10:05:28 PM

Latest Report: Feb 6, 2016 at 7:50 PM


Visibility: 10 mi

Pressure: 29.65 "Hg

Humidity: 76%

Dew point: 43 °F

Location of WillichLocation

Historic Weather in Willich — Graph

°F

Willich Temperature Yesterday

Maximum temperature yesterday: 50 °F (at 12:50 PM)
Minimum temperature yesterday: 41 °F (at 7:50 AM)
Average temperature yesterday: 48 °F

High & Low Weather Summary for the Past Weeks

 TemperatureHumidityPressure
High57 °F (Jan 25, 1:50 PM)100% (Jan 22, 8:20 PM)30.54 "Hg (Jan 22, 8:20 PM)
Low32 °F (Jan 22, 7:50 PM)54% (Jan 28, 1:50 PM)29.65 "Hg (Feb 6, 7:20 PM)
Average47 °F91%30.11 "Hg
* Reported Jan 22 7:20 PM — Feb 6 7:50 PM, Willich, Weather by CustomWeather, © 2016

Note: Actual official high and low records may vary slightly from our data, if they occured in-between our weather recording intervals... More about our weather records

Advertising

Willich Weather History for the Previous 24 Hours

 ConditionsComfort  
Time TempWeatherWind HumidityBarometerVisibility
7:50 PM
Sat, Feb 6
50 °FClear.13 mph76%29.65 "Hg10 mi
7:20 PM48 °FPassing clouds.12 mph82%29.65 "HgN/A
6:50 PM48 °FPassing clouds.10 mph82%29.68 "HgN/A
6:20 PM48 °FPassing clouds.9 mph82%29.68 "HgN/A
5:50 PM50 °FPassing clouds.8 mph76%29.71 "HgN/A
5:20 PM50 °FPassing clouds.7 mph76%29.71 "HgN/A
4:50 PM52 °FCool.7 mph72%29.74 "HgN/A
4:20 PM52 °FPassing clouds.9 mph72%29.74 "HgN/A
3:50 PM54 °FPassing clouds.12 mph67%29.74 "HgN/A
3:20 PM54 °FPassing clouds.14 mph67%29.77 "HgN/A
2:50 PM54 °FPassing clouds.16 mph67%29.80 "HgN/A
2:20 PM54 °FPassing clouds.13 mph67%29.80 "HgN/A
1:50 PM52 °FPassing clouds.12 mph77%29.83 "HgN/A
1:20 PM52 °FPassing clouds.10 mph72%29.83 "HgN/A
12:50 PM52 °FPassing clouds.14 mph72%29.86 "HgN/A
12:20 PM52 °FPassing clouds.12 mph72%29.86 "HgN/A
11:50 AM50 °FPassing clouds.12 mph82%29.86 "HgN/A
11:20 AM50 °FPassing clouds.8 mph88%29.89 "HgN/A
10:50 AM48 °FPassing clouds.7 mph94%29.86 "HgN/A
10:20 AM46 °FPassing clouds.7 mph100%29.89 "HgN/A
9:50 AM46 °FPassing clouds.8 mph93%29.89 "HgN/A
9:20 AM45 °FPassing clouds.7 mph100%29.89 "HgN/A
8:50 AM45 °FPassing clouds.5 mph100%29.92 "HgN/A
8:20 AM45 °FScattered clouds.6 mph100%29.92 "HgN/A
7:50 AM45 °FScattered clouds.6 mph100%29.92 "HgN/A
Weather by CustomWeather, © 2016

See weather overviewHow to use our weather pages